User: anonymous   Login
Location: Melbourne
(37.8170°S, 144.9670°E)
Time: 17:43:20
(UTC+10:00)
Language:

ISS - Orbit

View from above orbital plane
View from above orbital plane
View from above satellite
View from above satellite

Ground track
Ground track

The orbit data is extracted from the following two-line orbital elements,

1 25544U 98067A   15147.14557390  .00005659  00000-0  89194-4 0  9992
2 25544 051.6439 189.0910 0003955 350.1948 113.8327 15.55199900944769
Epoch (UTC): 27 May 2015 03:29:37
Eccentricity: 0.0003955
inclination: 51.6439°
perigee height: 399 km
apogee height: 404 km
right ascension of ascending node: 189.0910°
argument of perigee: 350.1948°
revolutions per day: 15.55199900
mean anomaly at epoch: 113.8327°
orbit number at epoch: 94476

The dashed part of the orbit path shows where the satellite is in the earth's shadow,  

DLR